Regional Weather Roundup
Issued by NWS Northern Indiana

Home | Current Version | Previous Version | Graphics & Text | Print | Product List | Glossary On
Versions: 1 2 3 4 5 6 7 8 9 10 11 12 13 14 15 16 17 18 19 20 21 22 23 24 25 26 27 28 29 30 31 32 33 34 35 36 37 38 39 40 41 42 43 44 45 46 47 48 49 50
000
ASUS43 KIWX 291210
RWRIWX

KIWX WEATHER ROUNDUP
NATIONAL WEATHER SERVICE NORTHERN INDIANA
800 AM EDT SUN MAR 29 2015

NOTE: "FAIR" INDICATES FEW OR NO CLOUDS BELOW 12,000 FEET WITH NO
SIGNIFICANT WEATHER AND/OR OBSTRUCTIONS TO VISIBILITY.

* THESE STATIONS ARE NOT UNDER NWS QUALITY CONTROL. THEY ALSO MAY NOT
  REPORT WEATHER SUCH AS PRECIPITATION OR FOG.

INZ001>027-291300-
NORTHERN INDIANA

CITY           SKY/WX    TMP DP  RH WIND       PRES   REMARKS
GARY*          MOCLDY    32  12  43 S14       30.17F WCI  22
VALPARAISO     PTCLDY    27  17  66 S8        30.18F WCI  19
6HR MIN TEMP:  22; 6HR MAX TEMP:  27;

MICHIGAN CITY* PTCLDY    28  12  50 S10G16    30.18F WCI  19
LAPORTE*       PTCLDY    29  19  65 S9G16     30.19F WCI  20
6HR MIN TEMP:  21; 6HR MAX TEMP:  29;

KNOX*            N/A     28   5  37 S13       30.20F WCI  18
SOUTH BEND     PTCLDY    29  15  56 S14       30.19F WCI  18
6HR MIN TEMP:  20; 6HR MAX TEMP:  29;

ELKHART*       CLEAR     27  12  54 S9        30.21  WCI  17
GOSHEN         PTCLDY    27  16  63 S14       30.22F WCI  16
6HR MIN TEMP:  21; 6HR MAX TEMP:  27;

MONTICELLO*    CLEAR     28  19  68 S8        30.22S WCI  20
6HR MIN TEMP:  27; 6HR MAX TEMP:  29;

LOGANSPORT*    PTCLDY    28  19  69 S12       30.25S WCI  18
ROCHESTER*     PTCLDY    30  21  69 S8        30.24F WCI  23
WARSAW*        PTCLDY    27  18  69 S7        30.24S WCI  19
ANGOLA*        CLEAR     23  16  74 S7        30.23S WCI  15
FORT WAYNE     PTCLDY    25  17  72 S10       30.28S WCI  15
6HR MIN TEMP:  22; 6HR MAX TEMP:  25;

HUNTINGTON*    CLEAR     26  13  60 S7        30.26S WCI  18
6HR MIN TEMP:  24; 6HR MAX TEMP:  26;

PERU/GRISSOM   PTCLDY    27  18  69 S13       30.23S WCI  16
6HR MIN TEMP:  24; 6HR MAX TEMP:  27;

MARION*        PTCLDY    25  17  69 S10       30.27S WCI  15
6HR MIN TEMP:  -9; 6HR MAX TEMP:  69;


$$
INZ028>050-291300-
CENTRAL INDIANA

CITY           SKY/WX    TMP DP  RH WIND       PRES   REMARKS
LAFAYETTE      PTCLDY    28  17  63 S7        30.23F WCI  21
6HR MIN TEMP:  26; 6HR MAX TEMP:  28;

KOKOMO*          N/A     27  18  69 S15       30.26R WCI  15
6HR MIN TEMP:  25; 6HR MAX TEMP:  27;

MUNCIE*        CLEAR     26  14  60 S8        30.28R WCI  18
6HR MIN TEMP:  24; 6HR MAX TEMP:  26;

INDIANAPOLIS   MOCLDY    26  14  60 SE10      30.26S WCI  16
6HR MIN TEMP:  24; 6HR MAX TEMP:  27;


$$
MIZ043>046-050>051-056>058-064>065-071>073-077>080-291300-
SOUTHWEST LOWER MICHIGAN

CITY           SKY/WX    TMP DP  RH WIND       PRES   REMARKS
BATTLE CREEK   PTCLDY    25  15  66 S10       30.20F WCI  15
6HR MIN TEMP:  20; 6HR MAX TEMP:  25;

BENTON HARBOR  PTCLDY    28  16  60 S13       30.15F WCI  17
6HR MIN TEMP:  18; 6HR MAX TEMP:  28;

COLDWATER*     PTCLDY    25  14  63 S8        30.21F WCI  16
6HR MIN TEMP:  18; 6HR MAX TEMP:  25;

HILLSDALE*     PTCLDY    22  14  70 S7        30.22S WCI  14
HOLLAND        MOCLDY    27  15  61 S10       30.15F WCI  17
6HR MIN TEMP:  20; 6HR MAX TEMP:  27;

GRAND RAPIDS   MOCLDY    25  14  63 S14       30.16F WCI  13
6HR MIN TEMP:  18; 6HR MAX TEMP:  25;

KALAMAZOO      PTCLDY    26  16  65 S10       30.19F WCI  16
6HR MIN TEMP:  20; 6HR MAX TEMP:  26;

STURGIS*       PTCLDY    25  16  68 S10       30.21F WCI  15
THREE RIVERS*  FAIR      26  17  71 S9        30.21F WCI  16
6HR MIN TEMP:  20; 6HR MAX TEMP:  26;


$$
OHZ001>008-015>018-024>025-291300-
NORTHWEST OHIO

CITY           SKY/WX    TMP DP  RH WIND       PRES   REMARKS
WAUSEON*       FAIR      23  18  80 S8        30.28R WCI  14
DEFIANCE       PTCLDY    23  16  74 S5        30.30R WCI  17
6HR MIN TEMP:  21; 6HR MAX TEMP:  25;

FINDLAY        CLEAR     24  16  71 S10       30.29S WCI  14
6HR MIN TEMP:  21; 6HR MAX TEMP:  24;

TOLEDO EXPRESS CLEAR     24  15  68 S7        30.29R WCI  16
6HR MIN TEMP:  21; 6HR MAX TEMP:  25;

TOLEDO METCALF CLEAR     24  15  68 SW9       30.30R WCI  14
6HR MIN TEMP:  20; 6HR MAX TEMP:  24;

LIMA           CLEAR     24  15  68 S10       30.29S WCI  14
6HR MIN TEMP:  23; 6HR MAX TEMP:  26;


$$
AND FOR LAKE MICHIGAN COASTAL AND OPEN LAKE BUOY OBSERVATIONS

STATION/POSITION TEMP    WIND        PRES    VSBY  WAVE
                 AIR SEA DIR/SP/G                  HT/PER
                 (F)     (DEG/KT/KT) (MB)    (MI)  (FT/S)
MICHIGAN CITY     28     150/ 14/ 19   N/A
BURNS HARBOR      29     180/ 14/ 19 1022.0S
SAINT JOSEPH      28     150/  5/ 13 1021.3F

$$
&&


USA.gov is the U.S. government's official web portal to all federal, state and local government web resources and services.